Location: *
(42.0175°N, 9.4056°E)
Time: 03:55:46
(UTC+00:00)

EXPRESS MD2 - Pass Details

Date: 25 August 2019
Orbit: 264 x 4060 km, 49.9° (Epoch: 13 October)

Event Time Altitude Azimuth Distance (km) Brightness Sun altitude
Rises 18:45:11 0° 295° (WNW) 4,228 10.4 -7.4°
Reaches altitude 10° 18:49:07 10° 302° (WNW) 2,637 8.4 -8.0°
Maximum altitude 18:54:22 39° 11° (N) 838 4.4 -8.9°
Enters shadow 18:57:15 10° 83° (E) 1,436 4.9 -9.4°
